Regional Weather Roundup
Issued by NWS Austin/San Antonio, TX

Home | Current Version | Previous Version | Text Only | Print | Product List | Glossary On
Versions: 1 2 3 4 5 6 7 8 9 10 11 12 13 14 15 16 17 18 19 20 21 22 23 24 25 26 27 28 29 30 31 32 33 34 35 36 37 38 39 40 41 42 43 44 45 46 47 48 49 50
000
ASUS44 KEWX 151510
RWREWX
SOUTH TEXAS REGIONAL WEATHER ROUNDUP
NATIONAL WEATHER SERVICE AUSTIN/SAN ANTONIO TX
1000 AM CDT SAT JUN 15 2019

NOTE: "FAIR" INDICATED FEW OR NO CLOUDS BELOW 12,000 FEET WITH NO
SIGNIFICANT WEATHER AND/OR OBSTRUCTIONS TO VISIBILITY.

* - THESE STATIONS ARE NOT NWS OR FAA STATIONS...AND ARE NOT SUBJECT
    TO NWS AND FAA QUALITY CONTROL.

TXZ171-172-183>190-151600-
TEXAS HILL COUNTRY AND EDWARDS PLATEAU

CITY           SKY/WX    TMP DP  RH WIND       PRES   REMARKS
JUNCTION       MOSUNNY   80  69  69 S15G22    29.92S
*LLANO         PTSUNNY   82  70  65 S14G20    29.95S
BURNET         PTSUNNY   80  68  66 S15G23    29.95S
*HORSESHOE BAY CLOUDY    82  70  65 S12       29.93S
*KERRVILLE     CLOUDY    76  70  81 S12       29.96S
*FREDERICKSBRG CLOUDY    77  67  72 S15G21    29.95F
*ROCKSPRINGS   CLOUDY    75  70  83 SE16      29.98F
*BOERNE STAGE  CLOUDY    75  72  88 S12G17    29.96S
*CASTROVILLE   CLOUDY    81  70  70 S13       29.94F
HONDO          CLOUDY    81  72  74 S16       29.92F
*UVALDE        MOSUNNY   81  73  78 SE15      29.91S
DEL RIO        PTSUNNY   82  72  71 SE16      29.86R
LAUGHLIN AFB   MOSUNNY   80  72  76 SE16      29.87S
CARRIZO SPRGS  SUNNY     84  72  65 S15G23    29.87S
$$

TXZ173-191>194-202-209-217>225-228-151600-
CENTRAL AND SOUTH CENTRAL TEXAS

CITY           SKY/WX    TMP DP  RH WIND       PRES   REMARKS
GEORGETOWN     PTSUNNY   82  71  69 S21       29.94S
AUSTIN/BERGSTM PTSUNNY   85  73  67 S26G35    29.92F HX  91
AUSTIN/MABRY   MOSUNNY   82  71  69 S8        29.94S
*AUSTIN/EXEC   MOSUNNY   82  72  69 SW16G29   29.94R
*LAGO VISTA    CLOUDY    80  70  73 S14G21    29.95S
SAN MARCOS     CLOUDY    83  74  74 SW15      29.93F
NEW BRAUNFELS  PTSUNNY   82  72  71 SW16      29.92F
RANDOLPH AFB   CLOUDY    82  73  74 S23       29.93R
PT SAN ANTONIO MOSUNNY   82  73  73 S13       29.91S
SAN ANTONIO    CLOUDY    81  71  71 S14G26    29.93S
STINSON FIELD  PTSUNNY   83  69  62 S13G26    29.91S
*LA GRANGE     CLOUDY    84  78  80 SW8       29.93S HX  95
*GIDDINGS      PTSUNNY   85  74  70 S10G21    29.96S HX  93
*GONZALES      PTSUNNY   85  75  72 S17G29    29.93F HX  93
$$

TXZ163>164-176>182-195>201-210>213-226-227-235-151600-
SOUTHEAST TEXAS

CITY           SKY/WX    TMP DP  RH WIND       PRES   REMARKS
COLLEGE STN    MOSUNNY   83  74  74 SW17      29.95F
*BRYAN         CLOUDY    83  77  81 S12G17    29.97S HX  93
*CALDWELL      MOSUNNY   85  74  70 S17       29.95S HX  92
*CROCKETT        N/A     82  75  78 S15G22    29.99S
*BRENHAM       PTSUNNY   86  76  72 S13       29.97S HX  96
HUNTSVILLE     MOSUNNY   85  74  69 S10       29.97S HX  92
CONROE         MOSUNNY   86  73  65 S14G22    29.97F HX  93
HOUSTON BUSH   PTSUNNY   88  77  69 S13G20    29.97S HX 100
HOUSTON HOBBY  PTSUNNY   88  74  63 S16       29.96S HX  96
*HOUSTON SW AP CLOUDY    85  77  77 S8        29.98S HX  95
PEARLAND       PTSUNNY   88  75  65 S10G20    29.98S HX  97
HOUSTON HOOKS  PTSUNNY   86  74  67 S12G20    29.97S HX  94
ELLINGTON FLD  MOSUNNY   88  70  55 S14       29.96S HX  92
SUGAR LAND     FAIR      87  77  72 SW12G22   29.96S HX  99
*HOUSTON EXEC  PTSUNNY   86  77  74 S15G23    29.98S HX  97
*CLEVELAND MUN PTSUNNY   87  77  72 S12G18    29.99S HX  99
*WHARTON       MOSUNNY   85  74  70 S12       29.97S HX  93
*COLUMBUS      PTSUNNY   85  74  68 S10G17    29.97S HX  93
*EAGLE LAKE    PTSUNNY   89  79  72 S16G23    29.96  HX 103
$$

TXZ214>216-236>238-151600-
THE UPPER TEXAS COAST

CITY           SKY/WX    TMP DP  RH WIND       PRES   REMARKS
*ORANGE        FAIR      86  79  79 S10       30.02S HX 100
PORT ARTHUR    FAIR      89  74  60 S14       29.99S HX  98
GALVESTON      PTSUNNY   84  77  79 S20       29.99R HX  94
ANGLETON       FAIR      87  77  72 S18G24    29.97R HX  99
*BAY CITY      PTSUNNY   90  79  71 S13       29.97R HX 105
PALACIOS       SUNNY     88  75  65 S16       29.96R HX  97
$$

TXZ229>234-239>247-151600-
TEXAS COASTAL BEND AND RIO GRANDE PLAINS

CITY           SKY/WX    TMP DP  RH WIND       PRES   REMARKS
VICTORIA       PTSUNNY   86  76  71 SW12      29.95R HX  96
*BEEVILLE      PTSUNNY   89  73  58 S21       29.94R HX  97
ROCKPORT       MOSUNNY   84  74  71 S7        29.93S HX  91
*PORT ARANSAS    N/A     86  77  75 S18       29.95F HX  97
*PORT LAVACA   MOSUNNY   87  77  72 S15       29.95R HX 100
*INGLESIDE     MOSUNNY   85  79  81 S10       29.94F HX  98
CORPUS CHRISTI PTSUNNY   88  77  69 S15       29.93S HX 100
CORPUS NAS     SUNNY     87  78  74 S17G26    29.93F HX 100
*ROBSTOWN      PTSUNNY   85  76  73 S16G23    29.94S HX  94
ALICE          PTSUNNY   88  75  65 S17G26    29.92F HX  97
KINGSVILLE NAS CLOUDY    87  76  69 S17       29.93S HX  97
COTULLA        MOSUNNY   84  72  67 S12G22    29.89S
LAREDO         SUNNY     85  72  65 SE23      29.88F HX  91
$$

TXZ248>255-151600-
DEEP SOUTH TEXAS

CITY           SKY/WX    TMP DP  RH WIND       PRES   REMARKS
BROWNSVILLE    FAIR      91  77  63 S17       29.94R HX 104
PORT ISABEL    FAIR      88  73  61 S18G24    29.94R HX  95
HARLINGEN      MOSUNNY   86  76  71 S16       29.94R HX  96
*HEBBRONVILLE  MOSUNNY   82  70  66 S12G18    29.94F
MCALLEN        MOSUNNY   88  75  65 SE15G21   29.94F HX  97
*WESLACO       PTSUNNY   86  73  64 SW18      29.94  HX  93
FALFURRIAS     MOSUNNY   85  73  67 S17       29.93F HX  92
EDINBURG       FAIR      89  74  61 S12       29.95S HX  97
*ZAPATA        FAIR      86  70  59 SE14      29.92F HX  90
$$

TXZ213>215-236>238-242>244-246-247-251-254-255-151600-
CMAN STATIONS

STATION/POSITION TIME  TEMP    WIND        PRES    WAVE
                       AIR SEA DIR/SP/G            HT/PER
                 (UTC) (F)     (DEG/KT/KT) (MB)    (FT/S)
SABINE PASS      1448      85  180/ 10/ 16 1017.7
NORTH JETTY/GLS  1442      84  200/ 16/ 17 1014.4
EAGLE POINT      1448      84  210/ 16/ 22 1014.5
MORGANS POINT    1448   86 85  180/  7/ 13 1015.0
PORT O`CONNOR    1448      84  180/ 16/ 20 1013.9
PORT ARANSAS     1500   84 84  160/ 19/ 21 1013.5
MALAQUITE BEACH  1448      85  160/ 27/ 32 1013.1
BAFFIN BAY       1448      85  170/ 15/ 21 1014.1
PORT ISABEL      1448      86  160/ 15/ 19 1014.6
$$



USA.gov is the U.S. government's official web portal to all federal, state and local government web resources and services.